Eau Claire, WI

4:16 AM CDT on May 30, 2017 (GMT -0500)
Chippewa Valley Regional

Weather History for KEAU - September, 2014

Change the Weather History Date:

Thursday, September 4, 2014

  Actual Average Record
Temperature  
Mean Temperature 71 °F 65 °F  
Max Temperature 77 °F 76 °F 96 °F (1925)
Min Temperature 64 °F 54 °F 33 °F (1974)
Degree Days  
Heating Degree Days 0 3  
Month to date heating degree days 0 10  
Since 1 July heating degree days 23 49  
Cooling Degree Days 6 3  
Month to date cooling degree days 13 12  
Year to date cooling degree days 491 539  
Growing Degree Days 20 (Base 50)    
Moisture  
Dew Point 70 °F    
Average Humidity 94    
Maximum Humidity 100    
Minimum Humidity 87    
Precipitation  
Precipitation 0.69 in 0.12 in 0.97 in (1989)
Month to date precipitation 2.93 0.49  
Year to date precipitation 35.60 22.61  
Snow  
Snow 0.00 in 0.00 in 0.00 in ()
Month to date snowfall 0.0 0.0  
Since 1 July snowfall 0.0 0.0  
Since 1 September snowfall 0.0 0.0  
Snow Depth 0.00 in    
Sea Level Pressure  
Sea Level Pressure 29.75 in    
Wind  
Wind Speed 8 mph (SE)    
Max Wind Speed 28 mph    
Max Gust Speed 30 mph    
Visibility 9 miles    
Events Rain , Thunderstorm    
T = Trace of Precipitation, MM = Missing Value Source: NWS Daily Summary

Daily Weather History Graph

Daily Weather History Graph

Search for Another Location

Airport or City:

Trip Planner

Search our weather history database for the weather conditions in past years. The results will help you decide how hot, cold, wet, or windy it might be!

Date:

Astronomy

Sep. 04, 2014 Rise Set
Actual Time 6:31 AM CDT 7:37 PM CDT
Civil Twilight 6:01 AM CDT 8:07 PM CDT
Nautical Twilight 5:25 AM CDT 8:43 PM CDT
Astronomical Twilight 4:47 AM CDT 9:20 PM CDT
Moon 4:22 PM CDT (9/4) 1:14 AM CDT (9/4)
Length of Visible Light 14h 05m
Length of Day
13h 05m
Waxing Gibbous, 74% of the Moon is Illuminated
Sep 4
Waxing Gibbous
Sep 8
Full
Sep 15
Last Quarter
Sep 24
New
Oct 1
First Quarter

Hourly Weather History & Observations

Time (CDT) Temp. Dew Point Humidity Pressure Visibility Wind Dir Wind Speed Gust Speed Precip Events Conditions
12:05 AM 66.0 °F 66.0 °F 100% 29.82 in 10.0 mi Calm Calm - N/A Thunderstorm Overcast
12:20 AM 66.0 °F 66.0 °F 100% 29.81 in 10.0 mi Calm Calm - 0.00 in   Overcast
12:56 AM 66.0 °F 66.0 °F 100% 29.80 in 10.0 mi Calm Calm - 0.00 in   Overcast
1:56 AM 66.9 °F 66.0 °F 97% 29.78 in 10.0 mi SE 4.6 mph - N/A   Overcast
2:45 AM 66.9 °F 66.0 °F 97% 29.78 in 10.0 mi Calm Calm - N/A   Scattered Clouds
2:56 AM 66.9 °F 66.0 °F 97% 29.77 in 10.0 mi SE 3.5 mph - N/A   Partly Cloudy
3:56 AM 64.9 °F 64.9 °F 100% 29.74 in 10.0 mi Calm Calm - N/A   Clear
4:56 AM 66.0 °F 64.9 °F 96% 29.70 in 10.0 mi SE 4.6 mph - N/A   Clear
5:56 AM 68.0 °F 66.9 °F 96% 29.69 in 10.0 mi SSE 8.1 mph - N/A   Scattered Clouds
6:08 AM 69.1 °F 68.0 °F 96% 29.71 in 10.0 mi SSE 10.4 mph - N/A   Mostly Cloudy
6:56 AM 70.0 °F 69.1 °F 97% 29.71 in 10.0 mi SSE 8.1 mph - N/A   Overcast
7:56 AM 72.0 °F 70.0 °F 93% 29.70 in 10.0 mi South 9.2 mph - N/A   Overcast
8:56 AM 73.9 °F 71.1 °F 91% 29.67 in 10.0 mi South 16.1 mph 26.5 mph N/A   Overcast
9:56 AM 73.9 °F 71.1 °F 91% 29.76 in 10.0 mi NW 6.9 mph - N/A   Overcast
10:31 AM 69.1 °F 66.0 °F 90% 29.77 in 10.0 mi NE 9.2 mph - 0.01 in Rain Light Rain
10:56 AM 68.0 °F 66.9 °F 96% 29.77 in 10.0 mi ENE 8.1 mph - 0.01 in Rain Light Rain
11:56 AM 68.0 °F 66.9 °F 96% 29.76 in 6.0 mi NE 4.6 mph - 0.04 in Rain Light Rain
12:56 PM 71.1 °F 70.0 °F 96% 29.76 in 10.0 mi East 5.8 mph - 0.00 in   Overcast
1:29 PM 75.0 °F 72.0 °F 90% 29.75 in 10.0 mi SE 6.9 mph - N/A Thunderstorm Overcast
1:56 PM 75.9 °F 72.0 °F 87% 29.75 in 10.0 mi East 5.8 mph - N/A Thunderstorm Overcast
2:21 PM 75.9 °F 72.0 °F 87% 29.77 in 10.0 mi East 5.8 mph - N/A Thunderstorm Thunderstorm
2:51 PM 73.4 °F 71.6 °F 94% 29.72 in 7.0 mi SSE 25.3 mph - 0.07 in Rain , Thunderstorm Thunderstorms and Rain
2:56 PM 73.9 °F 72.0 °F 93% 29.73 in 4.0 mi SSE 19.6 mph - 0.13 in Rain , Thunderstorm Heavy Thunderstorms and Rain
3:14 PM 73.9 °F 72.0 °F 93% 29.72 in 2.0 mi ESE 16.1 mph - 0.22 in Rain , Thunderstorm Heavy Thunderstorms and Rain
3:22 PM 73.9 °F 72.0 °F 93% 29.73 in 10.0 mi SE 13.8 mph 23.0 mph 0.23 in Rain , Thunderstorm Light Rain
3:48 PM 73.9 °F 72.0 °F 93% 29.77 in 5.0 mi South 10.4 mph - 0.32 in Rain , Thunderstorm Heavy Thunderstorms and Rain
3:56 PM 73.9 °F 72.0 °F 93% 29.76 in 5.0 mi South 9.2 mph - 0.34 in Rain , Thunderstorm Light Thunderstorms and Rain
4:21 PM 73.0 °F 73.0 °F 100% 29.75 in 2.5 mi SE 13.8 mph 17.3 mph 0.15 in Rain , Thunderstorm Heavy Rain
4:26 PM 73.9 °F 72.0 °F 93% 29.75 in 3.0 mi SSE 16.1 mph 29.9 mph 0.16 in Rain , Thunderstorm Thunderstorms and Rain
4:37 PM 73.9 °F 72.0 °F 93% 29.73 in 10.0 mi SE 18.4 mph - 0.16 in Rain Light Rain
4:45 PM 73.9 °F 73.0 °F 97% 29.73 in 10.0 mi SE 18.4 mph - 0.17 in Rain , Thunderstorm Light Thunderstorms and Rain
4:56 PM 73.9 °F 73.0 °F 97% 29.70 in 10.0 mi SSE 18.4 mph 25.3 mph 0.17 in Rain Light Rain
5:56 PM 75.0 °F 73.0 °F 94% 29.67 in 10.0 mi SSE 15.0 mph 24.2 mph 0.00 in   Partly Cloudy
6:56 PM 75.9 °F 73.0 °F 91% 29.70 in 10.0 mi South 4.6 mph - N/A   Partly Cloudy
7:56 PM 73.9 °F 73.9 °F 100% 29.74 in 10.0 mi SE 5.8 mph - N/A   Mostly Cloudy
9:16 PM 75.0 °F 73.9 °F 96% 29.79 in 6.0 mi Variable 4.6 mph - N/A   Mostly Cloudy
10:56 PM 73.9 °F 73.9 °F 100% 29.78 in 5.0 mi SW 4.6 mph - N/A   Mostly Cloudy
11:32 PM 75.0 °F 73.0 °F 94% 29.80 in 10.0 mi WNW 12.7 mph - 0.00 in   Overcast
11:56 PM 73.9 °F 71.1 °F 91% 29.80 in 10.0 mi WNW 10.4 mph - 0.00 in   Overcast